Simultaneous Nadir Overpasses (SNOs) Predictions

Prediction of SNOs between AQUA and METOP-B Satellite Orbit:

Table of predicted SNOs for the next 14.0 days since TLE Epoch: 11/13/2020
Index Date (AQUA) Time (AQUA) Lat,Lon (AQUA) SZA (AQUA ) Date (METOP-B) Time (METOP-B) Lat,Lon (METOP-B) SZA (METOP-B ) Distance(km) Time Diff (sec)
1 11/15/2020 14:53:39 73.80, -49.14 92.42 11/15/2020 14:53:15 73.82, -49.09 92.44 2.29 24
2 11/15/2020 15:43:06 -73.88, 118.33 87.50 11/15/2020 15:43:56 -73.86, 118.34 87.52 2.82 50
3 11/18/2020 09:38:18 -73.40,-149.47 87.32 11/18/2020 09:37:08 -73.34,-151.11 87.36 52.56 70
4 11/18/2020 10:27:53 73.78, 17.35 93.08 11/18/2020 10:27:39 73.78, 17.24 93.08 3.46 14
5 11/18/2020 11:17:20 -73.86,-175.19 86.83 11/18/2020 11:18:19 -73.87,-175.22 86.83 1.43 59
6 11/21/2020 05:12:37 -73.69, -83.66 86.38 11/21/2020 05:11:24 -73.65, -83.99 86.42 11.44 73
7 11/21/2020 06:02:07 73.82, 83.70 93.76 11/21/2020 06:02:01 73.79, 83.67 93.73 3.33 6
8 11/21/2020 06:51:34 -73.90,-108.83 86.16 11/21/2020 06:52:41 -73.88,-108.79 86.18 2.68 67
9 11/24/2020 00:46:52 -73.74, -17.32 85.74 11/24/2020 00:45:45 -73.76, -17.34 85.72 1.69 67
10 11/24/2020 01:36:21 73.81, 150.15 94.34 11/24/2020 01:36:24 73.80, 150.10 94.33 2.48 3
11 11/24/2020 02:25:50 -74.00, -42.61 85.46 11/24/2020 02:27:02 -73.98, -42.13 85.49 14.98 72
12 11/26/2020 20:21:06 -73.74, 49.11 85.20 11/26/2020 20:20:08 -73.76, 49.08 85.18 2.01 58
13 11/26/2020 21:10:35 73.82,-143.41 94.89 11/26/2020 21:10:47 73.80,-143.48 94.88 2.69 12
